This is the latest recevied weather packets stored in our database for station/object KI4BIY. If no packets are shown the sender has not sent any weather packets the latest 10 day(s).
| Time | Temp. | Humidity | Pressure | Rain* | Wind** | Luminosity | Snow |
|---|---|---|---|---|---|---|---|
| 1778269482 | 23.89° C | 46% | 1010.9 hPa | 0 mm | - | 664 W/m² | - |
| 1778269178 | 23.89° C | 49% | 1011.2 hPa | 0 mm | - | 699 W/m² | - |
| 1778268875 | 24.44° C | 47% | 1011.3 hPa | 0 mm | - | 656 W/m² | - |
| 1778268572 | 24.44° C | 46% | 1011.3 hPa | 0 mm | - | 675 W/m² | - |
| 1778268269 | 24.44° C | 44% | 1011.4 hPa | 0 mm | - | 655 W/m² | - |
| 1778267965 | 24.44° C | 49% | 1011.5 hPa | 0 mm | - | 625 W/m² | - |
| 1778267663 | 23.89° C | 45% | 1011.7 hPa | 0 mm | - | 605 W/m² | - |
| 1778267359 | 24.44° C | 46% | 1011.5 hPa | 0 mm | - | 654 W/m² | - |
| 1778267057 | 24.44° C | 48% | 1011.8 hPa | 0 mm | - | 604 W/m² | - |
| 1778266753 | 24.44° C | 49% | 1012.1 hPa | 0 mm | - | 545 W/m² | - |
| 1778266450 | 24.44° C | 43% | 1012.2 hPa | 0 mm | - | 571 W/m² | - |
| 1778266148 | 24.44° C | 46% | 1012.5 hPa | 0 mm | - | 655 W/m² | - |
| 1778265845 | 24.44° C | 49% | 1012.2 hPa | 0 mm | - | 722 W/m² | - |
| 1778265541 | 24.44° C | 45% | 1012.5 hPa | 0 mm | - | 715 W/m² | - |
| 1778265238 | 24.44° C | 47% | 1012.6 hPa | 0 mm | - | 720 W/m² | - |
| 1778264933 | 24.44° C | 45% | 1012.5 hPa | 0 mm | - | 734 W/m² | - |
| 1778264631 | 24.44° C | 49% | 1012.5 hPa | 0 mm | - | 757 W/m² | - |
| 1778264326 | 25° C | 46% | 1013.1 hPa | 0 mm | - | 756 W/m² | - |
| 1778264023 | 23.89° C | 45% | 1012.8 hPa | 0 mm | - | 761 W/m² | - |
| 1778263721 | 24.44° C | 42% | 1012.8 hPa | 0 mm | - | 735 W/m² | - |
| 1778263417 | 23.89° C | 48% | 1013 hPa | 0 mm | - | 678 W/m² | - |
| 1778263113 | 23.89° C | 45% | 1013.4 hPa | 0 mm | - | 643 W/m² | - |
| 1778262810 | 23.89° C | 43% | 1013 hPa | 0 mm | - | 668 W/m² | - |
| 1778262508 | 23.89° C | 41% | 1013.1 hPa | 0 mm | - | 778 W/m² | - |
| 1778262205 | 23.33° C | 46% | 1013.5 hPa | 0 mm | - | 769 W/m² | - |
* Rain latest hour (hover to see other rain measurements)
** Current wind speed in m/s (hover to see current wind gust speed)